Pardubice, Czech Republic

2:55 PM CET on January 16, 2018 (GMT +0100)
Pardubice

Weather History for LKPD - November, 2012

Change the Weather History Date:

Tuesday, November 27, 2012

  Actual Average Record
Temperature  
Mean Temperature 44 °F -  
Max Temperature 46 °F - - ()
Min Temperature 42 °F - - ()
Degree Days  
Heating Degree Days 21    
Moisture  
Dew Point 43 °F    
Average Humidity 94    
Maximum Humidity 100    
Minimum Humidity 87    
Precipitation  
Precipitation 0.00 in - - ()
Sea Level Pressure  
Sea Level Pressure 29.73 in    
Wind  
Wind Speed 2 mph ()    
Max Wind Speed 6 mph    
Max Gust Speed 14 mph    
Visibility 2.8 miles    
Events Fog    
T = Trace of Precipitation, MM = Missing Value Source: Averaged Metar Reports

Daily Weather History Graph

Daily Weather History Graph

Search for Another Location

Airport or City:

Trip Planner

Search our weather history database for the weather conditions in past years. The results will help you decide how hot, cold, wet, or windy it might be!

Date:

Astronomy

Nov. 27, 2012 Rise Set
Actual Time 7:28 AM CET 4:00 PM CET
Civil Twilight 6:51 AM CET 4:37 PM CET
Nautical Twilight 6:11 AM CET 5:17 PM CET
Astronomical Twilight 5:32 AM CET 5:56 PM CET
Moon 3:22 PM CET (11/27) 6:14 AM CET (11/27)
Length of Visible Light 9h 45m
Length of Day
8h 31m
Waxing Gibbous, 99% of the Moon is Illuminated
Nov 27
Waxing Gibbous
Nov 28
Full
Dec 6
Last Quarter
Dec 13
New
Dec 20
First Quarter

Hourly Weather History & Observations

Time (CET) Temp. Windchill Dew Point Humidity Pressure Visibility Wind Dir Wind Speed Gust Speed Precip Events Conditions
12:00 AM 44.6 °F - 41.0 °F 87% 29.77 in 6.2 mi NE 1.2 mph - N/A   Overcast
1:00 AM 44.6 °F - 41.0 °F 87% 29.77 in 6.2 mi Variable 1.2 mph - N/A   Overcast
2:00 AM 42.8 °F - 41.0 °F 93% 29.77 in 6.2 mi Calm Calm - N/A   Overcast
3:00 AM 42.8 °F - 41.0 °F 93% 29.74 in 6.2 mi East 2.3 mph - N/A   Overcast
4:00 AM 42.8 °F 40.1 °F 41.0 °F 93% 29.71 in 6.2 mi East 4.6 mph - N/A   Overcast
5:00 AM 44.6 °F 41.4 °F 41.0 °F 87% 29.74 in 6.2 mi West 5.8 mph - N/A   Overcast
6:00 AM 42.8 °F - 41.0 °F 93% 29.74 in 6.2 mi West 1.2 mph - N/A   Overcast
7:00 AM 42.8 °F - 41.0 °F 93% 29.71 in 6.2 mi Variable 2.3 mph - N/A   Overcast
7:25 AM 42.8 °F - 42.8 °F 100% 29.74 in 3.1 mi Calm Calm - N/A   Overcast
8:00 AM 42.8 °F 41.1 °F 42.8 °F 100% 29.74 in 3.1 mi WSW 3.5 mph - N/A   Overcast
9:00 AM 44.6 °F - 42.8 °F 93% 29.74 in 3.1 mi Variable 2.3 mph - N/A   Overcast
10:00 AM 44.6 °F - 42.8 °F 93% 29.74 in 3.1 mi Calm Calm - N/A   Overcast
11:00 AM 46.4 °F - 42.8 °F 87% 29.74 in 2.5 mi West 2.3 mph - N/A   Overcast
12:00 PM 46.4 °F - 44.6 °F 93% 29.74 in 2.2 mi Calm Calm - N/A   Overcast
12:36 PM 46.4 °F - 44.6 °F 93% 29.71 in 1.2 mi Variable 2.3 mph - N/A   Overcast
1:00 PM 44.6 °F - 44.6 °F 100% 29.71 in 1.2 mi Variable 2.3 mph 13.8 mph N/A   Overcast
1:20 PM 46.4 °F 45.2 °F 44.6 °F 93% 29.71 in 1.2 mi WNW 3.5 mph - N/A   Overcast
2:00 PM 44.6 °F 42.2 °F 44.6 °F 100% 29.74 in 0.9 mi West 4.6 mph - N/A   Light Drizzle
2:43 PM 44.6 °F 41.4 °F 44.6 °F 100% 29.74 in 0.9 mi WNW 5.8 mph - N/A   Light Drizzle
3:00 PM 44.6 °F 43.1 °F 42.8 °F 93% 29.71 in 0.9 mi WNW 3.5 mph - N/A   Light Drizzle
4:00 PM 44.6 °F - 42.8 °F 93% 29.71 in 0.7 mi SW 2.3 mph - N/A   Light Drizzle
5:00 PM 44.6 °F - 44.6 °F 100% 29.71 in 1.2 mi Calm Calm - N/A   Light Drizzle
6:00 PM 44.6 °F - 42.8 °F 93% 29.71 in 1.6 mi West 1.2 mph - N/A   Overcast
6:20 PM 44.6 °F - 42.8 °F 93% 29.71 in 2.2 mi West 2.3 mph - N/A   Overcast
7:00 PM 44.6 °F - 44.6 °F 100% 29.71 in 2.2 mi Calm Calm - N/A   Overcast
8:00 PM 44.6 °F - 44.6 °F 100% 29.71 in 1.9 mi Variable 2.3 mph - N/A   Overcast
8:16 PM 44.6 °F 43.1 °F 44.6 °F 100% 29.71 in 0.4 mi West 3.5 mph - N/A Fog Fog
9:00 PM 44.6 °F 43.1 °F 42.8 °F 93% 29.71 in 0.3 mi West 3.5 mph - N/A Fog Fog
10:00 PM 44.6 °F - 42.8 °F 93% 29.71 in 0.3 mi Variable 2.3 mph - N/A Fog Fog
11:00 PM 44.6 °F - 42.8 °F 93% 29.71 in 0.5 mi Variable 1.2 mph - N/A Fog Fog